Stündliche Wetter Cebulki

Heute, 23 Januar, Samstag

Zeit Temperatur Niederschläge Wind Luftdruck Luftfeuchtigkeit
00:00 -1°C° 0 mm 2 m/S 730 mmHg 93%
01:00 -1°C° 0 mm 2 m/S 730 mmHg 93%
02:00 -1°C° 0 mm 2 m/S 730 mmHg 93%
03:00 +1°C° 0 mm 1 m/S 730 mmHg 93%
04:00 +1°C° 0 mm 1 m/S 730 mmHg 93%
05:00 +1°C° 0 mm 1 m/S 730 mmHg 93%
06:00 -2°C° 0 mm 2 m/S 730 mmHg 93%
07:00 -2°C° 0 mm 3 m/S 730 mmHg 94%
08:00 -1°C° 0 mm 3 m/S 730 mmHg 94%
09:00 -1°C° 0 mm 4 m/S 730 mmHg 95%
10:00 -1°C° 0 mm 4 m/S 729 mmHg 96%
11:00 -1°C° 0.5 mm 5 m/S 729 mmHg 97%
12:00 0°C° 0.5 mm 5 m/S 728 mmHg 97%
13:00 0°C° 0.5 mm 5 m/S 728 mmHg 98%
14:00 0°C° 0.2 mm 5 m/S 727 mmHg 98%
15:00 0°C° 0.2 mm 5 m/S 727 mmHg 98%
16:00 0°C° 0.2 mm 5 m/S 726 mmHg 98%
17:00 0°C° 0 mm 5 m/S 726 mmHg 96%
18:00 +1°C° 0 mm 5 m/S 726 mmHg 95%
19:00 +1°C° 0 mm 5 m/S 726 mmHg 93%
20:00 0°C° 0 mm 5 m/S 726 mmHg 92%
21:00 0°C° 0 mm 5 m/S 726 mmHg 91%
22:00 0°C° 0 mm 5 m/S 726 mmHg 90%
23:00 -1°C° 0 mm 5 m/S 726 mmHg 90%

Morgen, 24 Januar, Sonntag

Zeit Temperatur Niederschläge Wind Luftdruck Luftfeuchtigkeit
00:00 -1°C° 0 mm 5 m/S 726 mmHg 90%
01:00 -3°C° 0 mm 6 m/S 727 mmHg 90%
02:00 -2°C° 0 mm 5 m/S 727 mmHg 90%
03:00 -2°C° 0 mm 5 m/S 727 mmHg 90%
04:00 -2°C° 0 mm 5 m/S 727 mmHg 91%
05:00 -2°C° 0 mm 4 m/S 727 mmHg 92%
06:00 -2°C° 0 mm 4 m/S 727 mmHg 93%
07:00 -2°C° 0 mm 4 m/S 727 mmHg 94%
08:00 -2°C° 0 mm 4 m/S 728 mmHg 95%
09:00 -1°C° 0 mm 3 m/S 728 mmHg 96%
10:00 -1°C° 0 mm 3 m/S 728 mmHg 97%
11:00 -1°C° 0 mm 3 m/S 728 mmHg 97%
12:00 +1°C° 0 mm 2 m/S 728 mmHg 98%
13:00 +1°C° 0 mm 2 m/S 728 mmHg 98%
14:00 -1°C° 0 mm 2 m/S 728 mmHg 98%
15:00 -1°C° 0 mm 2 m/S 728 mmHg 98%
16:00 -1°C° 0 mm 2 m/S 728 mmHg 98%
17:00 -1°C° 0 mm 3 m/S 728 mmHg 98%
18:00 -1°C° 0 mm 3 m/S 728 mmHg 98%
19:00 -1°C° 0 mm 3 m/S 729 mmHg 97%
20:00 -1°C° 0 mm 3 m/S 729 mmHg 97%
21:00 -1°C° 0 mm 3 m/S 729 mmHg 97%
22:00 -1°C° 0 mm 3 m/S 729 mmHg 96%
23:00 -1°C° 0 mm 3 m/S 729 mmHg 96%

übermorgen, 25 Januar, Montag

Zeit Temperatur Niederschläge Wind Luftdruck Luftfeuchtigkeit
00:00 -1°C° 0 mm 3 m/S 729 mmHg 95%
01:00 -1°C° 0 mm 3 m/S 729 mmHg 95%
02:00 -2°C° 0.1 mm 3 m/S 730 mmHg 94%
03:00 -2°C° 0.1 mm 3 m/S 730 mmHg 94%
04:00 -2°C° 0.1 mm 3 m/S 730 mmHg 94%
05:00 -2°C° 0 mm 3 m/S 730 mmHg 94%
06:00 -2°C° 0 mm 3 m/S 731 mmHg 94%
07:00 -4°C° 0 mm 3 m/S 731 mmHg 94%
08:00 -2°C° 0 mm 3 m/S 732 mmHg 92%
09:00 -2°C° 0 mm 3 m/S 732 mmHg 89%
10:00 -2°C° 0 mm 3 m/S 732 mmHg 87%
11:00 -1°C° 0 mm 3 m/S 733 mmHg 87%
12:00 -2°C° 0 mm 4 m/S 733 mmHg 87%
13:00 -2°C° 0 mm 4 m/S 733 mmHg 87%
14:00 -2°C° 0 mm 4 m/S 733 mmHg 86%
15:00 -2°C° 0 mm 4 m/S 734 mmHg 85%
16:00 -2°C° 0 mm 3 m/S 734 mmHg 84%
17:00 -2°C° 0 mm 3 m/S 734 mmHg 84%
18:00 -2°C° 0 mm 3 m/S 734 mmHg 85%
19:00 -2°C° 0 mm 3 m/S 735 mmHg 86%
20:00 -2°C° 0 mm 3 m/S 735 mmHg 87%
21:00 -3°C° 0 mm 2 m/S 735 mmHg 88%
22:00 -3°C° 0 mm 2 m/S 735 mmHg 89%
23:00 -4°C° 0 mm 3 m/S 735 mmHg 90%

26 Januar, Dienstag

Zeit Temperatur Niederschläge Wind Luftdruck Luftfeuchtigkeit
00:00 -4°C° 0 mm 3 m/S 734 mmHg 90%
01:00 -4°C° 0 mm 3 m/S 734 mmHg 90%
02:00 -4°C° 0 mm 3 m/S 734 mmHg 89%
03:00 -4°C° 0 mm 4 m/S 734 mmHg 89%
04:00 -4°C° 0 mm 4 m/S 734 mmHg 88%
05:00 -3°C° 0 mm 4 m/S 734 mmHg 88%
06:00 -3°C° 0 mm 4 m/S 734 mmHg 88%
07:00 -4°C° 0 mm 5 m/S 734 mmHg 88%
08:00 -4°C° 0 mm 5 m/S 735 mmHg 87%
09:00 -4°C° 0 mm 5 m/S 735 mmHg 86%
10:00 -3°C° 0 mm 6 m/S 735 mmHg 85%
11:00 -3°C° 0 mm 6 m/S 735 mmHg 85%
12:00 -3°C° 0 mm 6 m/S 735 mmHg 84%
13:00 -3°C° 0 mm 7 m/S 735 mmHg 84%
14:00 -3°C° 0 mm 6 m/S 735 mmHg 86%
15:00 -3°C° 0 mm 6 m/S 735 mmHg 87%
16:00 -3°C° 0 mm 6 m/S 735 mmHg 88%
17:00 -3°C° 0 mm 6 m/S 735 mmHg 88%
18:00 -3°C° 0 mm 6 m/S 735 mmHg 88%
19:00 -3°C° 0 mm 6 m/S 736 mmHg 88%
20:00 -3°C° 0.1 mm 6 m/S 736 mmHg 88%
21:00 -3°C° 0.1 mm 7 m/S 736 mmHg 88%
22:00 -3°C° 0.1 mm 7 m/S 736 mmHg 88%
23:00 -3°C° 0.1 mm 7 m/S 736 mmHg 88%

27 Januar, Mittwoch

Zeit Temperatur Niederschläge Wind Luftdruck Luftfeuchtigkeit
00:00 -4°C° 0.1 mm 6 m/S 736 mmHg 88%
01:00 -4°C° 0.1 mm 6 m/S 736 mmHg 88%
02:00 -4°C° 0 mm 6 m/S 736 mmHg 88%
03:00 -5°C° 0 mm 6 m/S 736 mmHg 89%
04:00 -5°C° 0 mm 6 m/S 735 mmHg 89%
05:00 -5°C° 0 mm 6 m/S 735 mmHg 89%
06:00 -5°C° 0 mm 5 m/S 735 mmHg 89%
07:00 -5°C° 0 mm 4 m/S 735 mmHg 89%
08:00 -5°C° 0 mm 5 m/S 736 mmHg 89%
09:00 -4°C° 0 mm 5 m/S 736 mmHg 90%
10:00 -4°C° 0 mm 5 m/S 736 mmHg 90%
11:00 -4°C° 0 mm 5 m/S 736 mmHg 89%
12:00 -2°C° 0 mm 5 m/S 736 mmHg 88%
13:00 -2°C° 0 mm 5 m/S 736 mmHg 86%
14:00 -2°C° 0 mm 4 m/S 737 mmHg 87%
15:00 -2°C° 0 mm 4 m/S 737 mmHg 87%
16:00 -2°C° 0 mm 3 m/S 737 mmHg 87%
17:00 -3°C° 0 mm 4 m/S 737 mmHg 89%
18:00 -3°C° 0 mm 4 m/S 737 mmHg 90%
19:00 -3°C° 0 mm 4 m/S 738 mmHg 92%
20:00 -3°C° 0 mm 4 m/S 738 mmHg 92%
21:00 -3°C° 0 mm 4 m/S 738 mmHg 92%
22:00 -3°C° 0 mm 4 m/S 738 mmHg 92%
23:00 -3°C° 0 mm 4 m/S 738 mmHg 92%

28 Januar, Donnerstag

Zeit Temperatur Niederschläge Wind Luftdruck Luftfeuchtigkeit
00:00 -3°C° 0 mm 4 m/S 739 mmHg 92%
01:00 -3°C° 0 mm 4 m/S 739 mmHg 92%
02:00 -3°C° 0 mm 4 m/S 739 mmHg 92%
03:00 -3°C° 0 mm 4 m/S 739 mmHg 92%
04:00 -3°C° 0 mm 4 m/S 739 mmHg 91%
05:00 -3°C° 0 mm 4 m/S 739 mmHg 91%
06:00 -2°C° 0 mm 3 m/S 739 mmHg 91%
07:00 -4°C° 0 mm 3 m/S 739 mmHg 91%
08:00 -2°C° 0 mm 3 m/S 739 mmHg 90%
09:00 -2°C° 0 mm 3 m/S 739 mmHg 89%
10:00 -2°C° 0 mm 3 m/S 739 mmHg 88%
11:00 -2°C° 0 mm 3 m/S 739 mmHg 87%
12:00 -2°C° 0 mm 2 m/S 738 mmHg 87%
13:00 -2°C° 0 mm 2 m/S 738 mmHg 86%
14:00 -2°C° 0 mm 2 m/S 738 mmHg 86%
15:00 0°C° 0 mm 1 m/S 738 mmHg 87%
16:00 0°C° 0 mm 1 m/S 738 mmHg 87%
17:00 0°C° 0 mm 1 m/S 738 mmHg 85%
18:00 0°C° 0 mm 1 m/S 738 mmHg 83%
19:00 -1°C° 0 mm 0 m/S 738 mmHg 82%
Mehr zeigen

Wir brauchen deine Erlaubnis

Meteoprog und unser Service Anbieter werden persönliche Daten aufbewahren, so wie Cookies, Geräte Bezeichnung oder ähnliche Technologien von deinem Gerät und Prozess, so wie Persönliche Daten Inhalte und Werbungen, genauso wie social Media und den Verkehr zu analysieren.

  • Aufbewahrung und/oder Zugang zu deiner Geräte Informationen.

    Cookies, Geräte Bezeichnung oder andere Informationen, können aufbewahrt oder Zugang zu deinem Gerät erhalten, für den Grund, der oben angegeben wird.

  • Personalisierte Werbung und Inhalte, Messungen, Einblick in das Publikum und Produkt Entwicklung.

    Werbungen und Inhalte können personalisiert werden, basierend auf ein Profil. Mehr Daten können besser personalisierte Werbungen und Inhalte hinzufügen. Werbung und Inhalte können gezeigt und gemessen werden. Einblicke über das Publikum, welche die Werbung gesehen haben und den Inhalt, können abgeleitet werden. So wie Daten können genutzt werden, um es zu verbessern oder die Benutzer Erfahrung zu verbessern das System und die Software.

Wenn du “Ich stimme zu” klickst, erlaubst du uns, die Cookies zu benutzen die Geräte Bezeichnung, den Web oder ähnliche Technologien zu benutzen. Deine Settings, können in deinem Gerät bei deinem Browser geändert werden.

Für den bestimmten Zweck, berechtigten Interessen beruhen darauf, mehr als auf den Inhalt. Du kannst mehr darüber in unseren Privaten und Cookie Politik lesen.